This is the latest recevied weather packets stored in our database for station/object N4YH-13. If no packets are shown the sender has not sent any weather packets the latest 10 day(s).
| Time | Temp. | Humidity | Pressure | Rain* | Wind** | Luminosity | Snow |
|---|---|---|---|---|---|---|---|
| 1777050604 | 23.89° C | 59% | 1011.8 hPa | 0 mm | - | - | - |
| 1777050484 | 23.89° C | 59% | 1011.8 hPa | 0 mm | - | - | - |
| 1777050364 | 23.89° C | 61% | 1011.7 hPa | 0 mm | - | - | - |
| 1777050244 | 23.33° C | 61% | 1011.7 hPa | 0 mm | - | - | - |
| 1777050123 | 23.33° C | 62% | 1011.7 hPa | 0 mm | - | - | - |
| 1777050003 | 22.78° C | 65% | 1012 hPa | 0 mm | - | - | - |
| 1777049884 | 22.78° C | 64% | 1011.9 hPa | 0 mm | - | - | - |
| 1777049764 | 22.78° C | 64% | 1011.9 hPa | 0 mm | - | - | - |
| 1777049644 | 22.78° C | 63% | 1011.9 hPa | 0 mm | - | - | - |
| 1777049524 | 22.78° C | 64% | 1011.9 hPa | 0 mm | - | - | - |
| 1777049404 | 22.78° C | 64% | 1011.9 hPa | 0 mm | - | - | - |
| 1777049283 | 22.78° C | 64% | 1011.9 hPa | 0 mm | - | - | - |
| 1777049163 | 22.78° C | 63% | 1011.9 hPa | 0 mm | - | - | - |
| 1777049043 | 22.78° C | 62% | 1012 hPa | 0 mm | - | - | - |
| 1777048924 | 23.33° C | 62% | 1012 hPa | 0 mm | - | - | - |
| 1777048804 | 23.33° C | 64% | 1012.1 hPa | 0 mm | - | - | - |
| 1777048684 | 23.33° C | 64% | 1012.1 hPa | 0 mm | - | - | - |
| 1777048564 | 23.33° C | 64% | 1012.1 hPa | 0 mm | - | - | - |
| 1777048444 | 23.33° C | 62% | 1012.2 hPa | 0 mm | - | - | - |
| 1777048323 | 23.89° C | 62% | 1012.2 hPa | 0 mm | - | - | - |
| 1777048203 | 23.89° C | 62% | 1012.7 hPa | 0 mm | - | - | - |
| 1777048083 | 23.89° C | 64% | 1012.7 hPa | 0 mm | - | - | - |
| 1777047964 | 23.89° C | 63% | 1012.7 hPa | 0 mm | - | - | - |
| 1777047844 | 23.89° C | 64% | 1012.7 hPa | 0 mm | - | - | - |
| 1777047724 | 23.89° C | 61% | 1012.6 hPa | 0 mm | - | - | - |
* Rain latest hour (hover to see other rain measurements)
** Current wind speed in m/s (hover to see current wind gust speed)